Adrara San Martino, Italy

2:26 AM CEST on April 30, 2017 (GMT +0200)
Adrara San Martino

Weather History for 16076 - March, 2014

Change the Weather History Date:

Sunday, March 9, 2014

  Actual Average Record
Temperature  
Mean Temperature 50 °F -  
Max Temperature 59 °F 56 °F - ()
Min Temperature 40 °F 40 °F - ()
Degree Days  
Heating Degree Days 16    
Moisture  
Dew Point 40 °F    
Average Humidity 69    
Maximum Humidity 87    
Minimum Humidity 44    
Precipitation  
Precipitation 0.00 in 0.11 in - ()
Sea Level Pressure  
Sea Level Pressure 30.39 in    
Wind  
Wind Speed 5 mph ()    
Max Wind Speed 8 mph    
Max Gust Speed -    
Visibility 4.0 miles    
Events      
T = Trace of Precipitation, MM = Missing Value Source: Averaged Metar Reports

Daily Weather History Graph

Daily Weather History Graph

Search for Another Location

Airport or City:

Trip Planner

Search our weather history database for the weather conditions in past years. The results will help you decide how hot, cold, wet, or windy it might be!

Date:

Astronomy

Mar. 09, 2014 Rise Set
Actual Time 6:45 AM CET 6:18 PM CET
Civil Twilight 6:15 AM CET 6:48 PM CET
Nautical Twilight 5:41 AM CET 7:22 PM CET
Astronomical Twilight 5:06 AM CET 7:57 PM CET
Moon 11:44 AM CET (3/9) 2:10 AM CET (3/9)
Length of Visible Light 12h 32m
Length of Day
11h 33m
First Quarter, 59% of the Moon is Illuminated
Mar 9
First Quarter
Mar 16
Full
Mar 24
Last Quarter
Mar 30
New
Apr 7
First Quarter

Hourly Weather History & Observations

Time (CET) Temp. Windchill Dew Point Humidity Pressure Visibility Wind Dir Wind Speed Gust Speed Precip Events Conditions
12:20 AM 44.6 °F 41.4 °F 39.2 °F 81% 30.45 in 3.7 mi North 5.8 mph - N/A   Unknown
12:50 AM 44.6 °F 42.2 °F 39.2 °F 81% 30.45 in 3.7 mi NNE 4.6 mph - N/A   Unknown
1:00 AM 45 °F - 40 °F 75% 30.48 in 4 mi North 5.8 mph - -  
1:20 AM 44.6 °F 42.2 °F 39.2 °F 81% 30.45 in 3.7 mi NNE 4.6 mph - N/A   Unknown
1:50 AM 44.6 °F 41.4 °F 39.2 °F 81% 30.42 in 3.7 mi North 5.8 mph - N/A   Unknown
2:20 AM 44.6 °F 40.7 °F 39.2 °F 81% 30.42 in 3.7 mi North 6.9 mph - N/A   Unknown
2:50 AM 44.6 °F 41.4 °F 39.2 °F 81% 30.42 in 3.7 mi NNE 5.8 mph - N/A   Unknown
3:20 AM 44.6 °F 43.1 °F 39.2 °F 81% 30.42 in 3.7 mi North 3.5 mph - N/A   Unknown
3:50 AM 44.6 °F 40.7 °F 39.2 °F 81% 30.42 in 3.7 mi NNE 6.9 mph - N/A   Unknown
4:00 AM 44 °F - 39 °F 75% 30.45 in 4 mi NNE 5.8 mph - -  
4:20 AM 42.8 °F 40.1 °F 37.4 °F 81% 30.42 in 3.7 mi NE 4.6 mph - N/A   Unknown
4:50 AM 42.8 °F 39.3 °F 37.4 °F 81% 30.42 in 3.7 mi North 5.8 mph - N/A   Unknown
5:20 AM 42.8 °F 38.6 °F 37.4 °F 81% 30.39 in 3.7 mi North 6.9 mph - N/A   Unknown
5:50 AM 41.0 °F 37.1 °F 37.4 °F 87% 30.42 in 3.7 mi NNE 5.8 mph - N/A   Unknown
6:20 AM 41.0 °F 36.4 °F 37.4 °F 87% 30.42 in 4.3 mi NNE 6.9 mph - N/A   Unknown
6:50 AM 41.0 °F 37.1 °F 37.4 °F 87% 30.42 in 4.3 mi NNE 5.8 mph - N/A   Unknown
7:00 AM 42 °F - 37 °F 75% 30.46 in 4 mi North 5.8 mph - -  
7:20 AM 42.8 °F 41.1 °F 37.4 °F 81% 30.42 in 4.3 mi NE 3.5 mph - N/A   Unknown
7:50 AM 42.8 °F 39.3 °F 39.2 °F 87% 30.42 in 4.3 mi North 5.8 mph - N/A   Unknown
8:20 AM 46.4 °F 43.5 °F 39.2 °F 76% 30.42 in - North 5.8 mph - N/A   Clear
8:50 AM 48.2 °F - 41.0 °F 76% 30.42 in - NNE 4.6 mph - N/A   Clear
9:20 AM 51.8 °F - 41.0 °F 67% 30.42 in - Variable 2.3 mph - N/A   Clear
9:50 AM 53.6 °F - 41.0 °F 62% 30.42 in - South 4.6 mph - N/A   Clear
10:00 AM 54 °F - 41 °F 52% 30.44 in 6 mi South 4.6 mph - -  
10:20 AM 53.6 °F - 41.0 °F 62% 30.42 in - South 5.8 mph - N/A   Clear
10:50 AM 55.4 °F - 42.8 °F 63% 30.42 in - SSE 4.6 mph - N/A   Clear
11:20 AM 55.4 °F - 41.0 °F 58% 30.42 in - South 4.6 mph - N/A   Clear
11:50 AM 55.4 °F - 42.8 °F 63% 30.42 in - South 5.8 mph - N/A   Clear
12:20 PM 57.2 °F - 42.8 °F 59% 30.42 in - South 5.8 mph - N/A   Clear
12:50 PM 57.2 °F - 42.8 °F 59% 30.42 in - Variable 3.5 mph - N/A   Clear
1:00 PM 57 °F - 42 °F 46% 30.42 in 6 mi South 3.5 mph - -  
1:20 PM 57.2 °F - 41.0 °F 55% 30.39 in - WSW 3.5 mph - N/A   Clear
1:50 PM 59.0 °F - 42.8 °F 55% 30.39 in - NNE 2.3 mph - N/A   Clear
2:20 PM 59.0 °F - 42.8 °F 55% 30.36 in - Variable 3.5 mph - N/A   Clear
2:50 PM 59.0 °F - 41.0 °F 51% 30.36 in 5.0 mi SSW 5.8 mph - N/A   Unknown
3:20 PM 59.0 °F - 41.0 °F 51% 30.36 in 4.3 mi SSW 6.9 mph - N/A   Unknown
3:50 PM 59.0 °F - 42.8 °F 55% 30.36 in 4.3 mi SSW 4.6 mph - N/A   Unknown
4:00 PM 59 °F - 43 °F 44% 30.37 in 4 mi South 4.6 mph - -   Mist
4:20 PM 59.0 °F - 41.0 °F 51% 30.36 in 4.3 mi SSW 5.8 mph - N/A   Unknown
4:50 PM 59.0 °F - 41.0 °F 51% 30.33 in 4.3 mi SSW 4.6 mph - N/A   Unknown
5:20 PM 57.2 °F - 41.0 °F 55% 30.33 in 4.3 mi South 3.5 mph - N/A   Unknown
5:50 PM 55.4 °F - 41.0 °F 58% 30.33 in 4.3 mi South 4.6 mph - N/A   Unknown
6:20 PM 55.4 °F - 41.0 °F 58% 30.33 in 4.3 mi SSW 3.5 mph - N/A   Unknown
6:50 PM 53.6 °F - 41.0 °F 62% 30.33 in 4.3 mi SSW 1.2 mph - N/A   Unknown
7:00 PM 52 °F - 41 °F 57% 30.37 in 4 mi South 1.2 mph - -   Mist
7:20 PM 51.8 °F - 41.0 °F 67% 30.33 in 3.7 mi NNE 3.5 mph - N/A   Unknown
7:50 PM 51.8 °F - 41.0 °F 67% 30.33 in 3.7 mi NNE 4.6 mph - N/A   Unknown
8:20 PM 50.0 °F - 41.0 °F 71% 30.33 in 3.7 mi North 3.5 mph - N/A   Unknown
8:50 PM 50.0 °F - 41.0 °F 71% 30.33 in 3.7 mi NNE 4.6 mph - N/A   Unknown
9:20 PM 48.2 °F - 41.0 °F 76% 30.33 in 3.7 mi North 4.6 mph - N/A   Unknown
9:50 PM 48.2 °F - 41.0 °F 76% 30.33 in 3.1 mi North 6.9 mph - N/A   Mist
10:00 PM 48 °F - 41 °F 70% 30.36 in 3 mi North 6.9 mph - -   Mist
10:20 PM 46.4 °F 42.9 °F 41.0 °F 81% 30.33 in 3.1 mi North 6.9 mph - N/A   Mist
10:50 PM 46.4 °F 42.9 °F 41.0 °F 81% 30.33 in 3.7 mi North 6.9 mph - N/A   Unknown
11:20 PM 46.4 °F 45.2 °F 41.0 °F 81% 30.30 in 3.7 mi NNE 3.5 mph - N/A   Unknown
11:50 PM 46.4 °F 42.4 °F 41.0 °F 81% 30.30 in 3.7 mi NNE 8.1 mph - N/A   Unknown